Overview Statistics Trail Chart Weather Telemetry Raw packets
 

This is the latest recevied weather packets stored in our database for station/object N0KTA-2. If no packets are shown the sender has not sent any weather packets the latest 10 day(s).

<< 30 31 32 33 34 35 36 >>
Time Temp. Humidity Pressure Rain* Wind** Luminosity Snow
1788215903 38.33° C 29% 1006.6 hPa 0 mm - - -
1788215302 38.33° C 29% 1006.6 hPa 0 mm - - -
1788214703 38.33° C 29% 1006.7 hPa 0 mm - - -
1788214101 38.33° C 30% 1006.8 hPa 0 mm - - -
1788213502 38.89° C 29% 1006.7 hPa 0 mm - - -
1788212902 38.89° C 29% 1006.9 hPa 0 mm - - -
1788212302 38.89° C 30% 1006.8 hPa 0 mm - - -
1788211703 38.89° C 28% 1007 hPa 0 mm - - -
1788211102 38.89° C 28% 1007 hPa 0 mm - - -
1788210503 38.89° C 29% 1007 hPa 0 mm - - -
1788209902 38.89° C 29% 1006.9 hPa 0 mm - - -
1788209301 38.89° C 29% 1006.9 hPa 0 mm - - -
1788208702 38.89° C 29% 1007 hPa 0 mm - - -
1788208103 38.89° C 28% 1007.2 hPa 0 mm - - -
1788207502 38.89° C 29% 1007.4 hPa 0 mm - - -
1788206903 38.89° C 29% 1007.4 hPa 0 mm - - -
1788206302 38.89° C 29% 1007.4 hPa 0 mm - - -
1788205701 38.89° C 32% 1007.4 hPa 0 mm - - -
1788205102 38.33° C 31% 1007.5 hPa 0 mm - - -
1788204502 38.89° C 31% 1007.7 hPa 0 mm - - -
1788203902 38.33° C 32% 1007.8 hPa 0 mm - - -
1788203302 38.33° C 33% 1007.9 hPa 0 mm - - -
1788202701 38.33° C 34% 1007.8 hPa 0 mm - - -
1788202102 37.78° C 33% 1007.9 hPa 0 mm - - -
1788201501 37.78° C 35% 1007.9 hPa 0 mm - - -

* Rain latest hour (hover to see other rain measurements)
** Current wind speed in m/s (hover to see current wind gust speed)